DW8661 Weather Reports


time (UTC)temp
C
wind
direction
speed
KPH
gust
KPH
rain 1hr
cm
rain 24hr
cm
rain mn
cm
humidity
%
barometer
mb
20260503071559 13 213 1.6 8.0 0.00 1.09 0.00 83 1015.1
20260503054558 12 275 0.0 6.4 0.00 1.22 0.00 90 1015.0
20260503053059 12 326 6.4 11.3 0.00 1.22 0.00 87 1014.9
20260503051559 13 200 0.0 4.8 0.00 1.22 0.00 88 1014.7
20260503044559 13 105 3.2 6.4 0.00 1.22 0.00 88 1014.6
20260503043108 13 63 0.0 0.0 0.00 1.22 0.00 87 1014.9
20260503041559 13 63 1.6 6.4 0.00 1.22 0.00 87 1014.7
20260503040104 13 89 1.6 4.8 0.00 1.22 0.00 87 1014.8
20260503040003 13 61 1.6 4.8 0.00 1.22 0.00 87 1014.8
20260503034611 13 62 0.0 6.4 0.00 1.22 0.00 88 1015.0
20260503033059 13 51 4.8 8.0 0.00 1.22 0.00 88 1015.1
20260503031558 13 75 3.2 8.0 0.00 1.22 0.00 88 1015.3
20260503030059 13 52 3.2 6.4 0.00 1.22 0.00 87 1015.4
20260503024559 13 42 3.2 9.7 0.00 1.22 0.00 87 1015.5
20260503023100 13 85 1.6 8.0 0.00 1.22 0.00 86 1015.5
20260503021559 14 65 1.6 4.8 0.00 1.22 0.00 85 1015.5
20260503020059 14 69 1.6 4.8 0.00 1.22 0.00 85 1015.5
20260503014615 14 58 0.0 1.6 0.00 1.22 0.00 86 1015.5
20260503013058 14 38 0.0 0.0 0.00 1.22 0.00 86 1015.5
20260503011558 14 83 0.0 0.0 0.00 1.22 0.00 84 1015.7
20260503010104 15 83 0.0 0.0 0.00 1.22 0.00 83 1015.6
20260503004558 15 84 0.0 1.6 0.00 1.22 0.00 82 1016.0
20260503003106 15 83 0.0 1.6 0.00 1.22 0.00 83 1016.0
20260503001612 15 81 0.0 1.6 0.00 1.22 0.00 83 1016.1
20260502234559 15 96 1.6 3.2 0.00 1.22 0.00 84 1016.4
20260502233100 14 11 0.0 3.2 0.00 1.22 0.00 84 1016.4
20260502231603 14 11 3.2 6.4 0.00 1.22 0.00 84 1016.4
20260502230059 15 17 3.2 6.4 0.00 1.22 0.00 83 1016.4
20260502230001 15 331 1.6 6.4 0.00 1.22 0.00 82 1016.4
20260502224500 15 322 3.2 4.8 0.00 1.22 0.00 79 1016.6
20260502223101 16 240 1.6 6.4 0.00 1.22 0.00 77 1016.4
20260502221500 16 152 3.2 8.0 0.00 1.22 0.00 77 1016.5
20260502220100 15 191 3.2 8.0 0.00 1.22 0.00 77 1016.6
20260502214606 15 167 3.2 8.0 0.00 1.22 1.22 78 1016.7
20260502213059 15 217 1.6 6.4 0.00 1.22 1.22 78 1016.6
20260502211600 15 176 1.6 4.8 0.00 1.22 1.22 79 1016.5
20260502210128 15 158 1.6 4.8 0.00 1.22 1.22 80 1016.3
20260502204559 15 169 1.6 4.8 0.00 1.22 1.22 81 1016.5
20260502203059 15 227 0.0 3.2 0.00 1.22 1.22 80 1016.2
20260502201612 15 247 0.0 4.8 0.00 1.22 1.22 80 1016.0
20260502200100 15 223 1.6 4.8 0.00 1.22 1.22 80 1015.9
20260502200002 15 197 1.6 4.8 0.00 1.22 1.22 80 1016.0
20260502194600 15 205 0.0 3.2 0.00 1.22 1.22 79 1015.9
20260502194501 15 205 0.0 3.2 0.00 1.22 1.22 79 1015.8
20260502193101 15 215 1.6 4.8 0.00 1.22 1.22 78 1015.6
20260502191501 15 237 1.6 4.8 0.00 1.22 1.22 78 1015.6
20260502190001 16 212 1.6 8.0 0.00 1.22 1.22 77 1015.6
20260502184611 16 205 1.6 6.4 0.00 1.22 1.22 76 1015.5
20260502183105 16 168 0.0 3.2 0.00 1.22 1.22 76 1015.4
20260502181610 16 282 0.0 3.2 0.00 1.22 1.22 76 1015.5
20260502163100 15 19 0.0 6.4 0.00 1.22 1.22 83 1016.0
20260502161559 14 207 0.0 9.7 0.05 1.22 1.22 85 1016.3
20260502151622 18 270 9.7 20.9 0.00 1.17 1.17 69 1015.8
20260502150109 18 193 4.8 16.1 0.00 1.17 1.17 72 1015.9
20260502123106 14 172 12.9 20.9 0.43 1.12 1.12 85 1018.7
20260502121558 16 153 8.0 19.3 0.15 0.81 0.81 81 1018.2
20260502114601 16 125 3.2 14.5 0.00 0.69 0.69 77 1017.9
20260502113058 16 198 8.0 20.9 0.00 0.69 0.69 76 1018.3
20260502111600 16 176 9.7 17.7 0.00 0.69 0.69 77 1018.6
20260502110103 15 140 9.7 19.3 0.00 0.69 0.69 81 1018.7
20260502104559 15 221 4.8 16.1 0.00 0.69 0.69 83 1019.0
20260502103107 15 95 6.4 11.3 0.03 0.69 0.69 84 1019.1
20260502101634 15 117 1.6 8.0 0.03 0.69 0.69 85 1019.1
20260502100120 15 189 1.6 11.3 0.03 0.69 0.69 86 1019.3
20260502080107 14 158 4.8 9.7 0.23 0.38 0.38 88 1019.9